This is the latest recevied weather packets stored in our database for station/object JG6YPS-13. If no packets are shown the sender has not sent any weather packets the latest 10 day(s).
| Time | Temp. | Humidity | Pressure | Rain* | Wind** | Luminosity | Snow |
|---|---|---|---|---|---|---|---|
| 1777473773 | 16.11° C | 86% | 1017 hPa | 0 mm | - | - | - |
| 1777473173 | 16.11° C | 87% | 1017.2 hPa | 0 mm | - | - | - |
| 1777472574 | 16.11° C | 86% | 1017.2 hPa | 0 mm | - | - | - |
| 1777471974 | 16.11° C | 85% | 1017.3 hPa | 0 mm | - | - | - |
| 1777471374 | 16.11° C | 86% | 1017.4 hPa | 0 mm | - | - | - |
| 1777470775 | 15.56° C | 84% | 1017.3 hPa | 0 mm | - | - | - |
| 1777470175 | 16.11° C | 84% | 1017.4 hPa | 0 mm | - | - | - |
| 1777469576 | 16.11° C | 84% | 1017.5 hPa | 0 mm | - | - | - |
| 1777468976 | 16.11° C | 85% | 1017.5 hPa | 0.25 mm | - | - | - |
| 1777468377 | 16.11° C | 85% | 1017.6 hPa | 0.25 mm | - | - | - |
| 1777467777 | 16.11° C | 85% | 1017.7 hPa | 0.25 mm | - | - | - |
| 1777467177 | 16.11° C | 85% | 1017.6 hPa | 0.25 mm | - | - | - |
| 1777466578 | 16.11° C | 85% | 1017.6 hPa | 0.25 mm | - | - | - |
| 1777465978 | 16.11° C | 85% | 1017.6 hPa | 0.25 mm | - | - | - |
| 1777465379 | 16.11° C | 84% | 1017.5 hPa | 0 mm | - | - | - |
| 1777464779 | 16.67° C | 84% | 1017.5 hPa | 0 mm | - | - | - |
| 1777464179 | 16.67° C | 83% | 1017.4 hPa | 0 mm | - | - | - |
| 1777463580 | 16.67° C | 84% | 1017.5 hPa | 0 mm | - | - | - |
| 1777462980 | 16.67° C | 84% | 1017.3 hPa | 0 mm | - | - | - |
| 1777462381 | 16.67° C | 83% | 1017.2 hPa | 0 mm | - | - | - |
| 1777461781 | 16.67° C | 80% | 1016.9 hPa | 0 mm | - | - | - |
| 1777461182 | 17.22° C | 81% | 1016.8 hPa | 0 mm | - | - | - |
| 1777460582 | 16.67° C | 79% | 1016.5 hPa | 0 mm | - | - | - |
| 1777459983 | 17.22° C | 76% | 1016.3 hPa | 0 mm | - | - | - |
| 1777459383 | 17.22° C | 76% | 1016.1 hPa | 0 mm | - | - | - |
* Rain latest hour (hover to see other rain measurements)
** Current wind speed in m/s (hover to see current wind gust speed)